CDG4942 ZHCC-ZWWW

Flight info

Callsign CDG4942
Flight time N/A
Altitude 30100
Route P320 H14 ZS H142 DOVOP W541 OVKAB W94 XFG W213 APESU W197 ANDIM B215 IBANO G470 QTV W99 AGOXA
Aircraft B738/M-SDE2E3FGHIRWXY/LB1

Departure

Time N/A
Airport Zhengzhou Xinzheng International Airport (ZHCC)

Arrival

Time 2026-04-29 12:49
Airport Ürümqi Tianshan International Airport (ZWWW)
Time Latitude Longitude Altitude Speed Heading
2026-04-29 10:36 37.39242 102.27123 32377 ft 413 kts 286°
2026-04-29 10:37 37.39908 102.23614 32385 ft 412 kts 286°
2026-04-29 10:37 37.41242 102.16619 32379 ft 411 kts 286°
2026-04-29 10:38 37.42589 102.09625 32383 ft 411 kts 286°
2026-04-29 10:38 37.43941 102.02631 32392 ft 412 kts 287°
2026-04-29 10:39 37.45296 101.95628 32399 ft 411 kts 286°
2026-04-29 10:39 37.46646 101.88635 32405 ft 412 kts 286°
2026-04-29 10:40 37.48000 101.81589 32421 ft 413 kts 286°
2026-04-29 10:40 37.49350 101.74557 32432 ft 413 kts 287°
2026-04-29 10:41 37.51002 101.67660 32424 ft 409 kts 294°
2026-04-29 10:41 37.53458 101.61195 32432 ft 409 kts 300°
2026-04-29 10:42 37.56175 101.54943 32429 ft 409 kts 300°
2026-04-29 10:42 37.58920 101.48678 32434 ft 409 kts 300°
2026-04-29 10:43 37.61643 101.42375 32449 ft 408 kts 300°
2026-04-29 10:43 37.64352 101.36035 32471 ft 410 kts 300°
2026-04-29 10:44 37.67020 101.29748 32474 ft 409 kts 299°
2026-04-29 10:44 37.69701 101.23412 32480 ft 409 kts 299°
2026-04-29 10:45 37.72382 101.17062 32487 ft 409 kts 299°
2026-04-29 10:45 37.75034 101.10764 32503 ft 409 kts 299°
2026-04-29 10:46 37.77710 101.04391 32508 ft 409 kts 299°
2026-04-29 10:46 37.80377 100.98029 32523 ft 410 kts 299°
2026-04-29 10:47 37.83033 100.91689 32515 ft 407 kts 299°
2026-04-29 10:47 37.85771 100.85411 32528 ft 409 kts 301°
2026-04-29 10:48 37.88579 100.79186 32526 ft 408 kts 301°
2026-04-29 10:48 37.91398 100.72920 32535 ft 410 kts 301°
2026-04-29 10:49 37.94202 100.66640 32538 ft 408 kts 301°
2026-04-29 10:49 37.96992 100.60361 32535 ft 409 kts 301°
2026-04-29 10:50 37.99767 100.54092 32541 ft 408 kts 301°
2026-04-29 10:50 38.02526 100.47847 32550 ft 408 kts 301°
2026-04-29 10:51 38.05304 100.41558 32547 ft 409 kts 301°
2026-04-29 10:51 38.08069 100.35284 32558 ft 409 kts 301°
2026-04-29 10:52 38.10842 100.28979 32534 ft 408 kts 300°
2026-04-29 10:52 38.13590 100.22707 32543 ft 408 kts 300°
2026-04-29 10:53 38.16341 100.16421 32547 ft 408 kts 300°
2026-04-29 10:53 38.19087 100.10131 32526 ft 407 kts 300°
2026-04-29 10:54 38.21847 100.03795 32542 ft 409 kts 300°
2026-04-29 10:54 38.24590 99.97486 32522 ft 409 kts 300°
2026-04-29 10:55 38.27338 99.91161 32497 ft 409 kts 300°
2026-04-29 10:55 38.30084 99.84821 32522 ft 407 kts 300°
2026-04-29 10:56 38.32836 99.78457 32542 ft 407 kts 300°
2026-04-29 10:56 38.35543 99.72182 32534 ft 408 kts 300°
2026-04-29 10:57 38.38261 99.65877 32537 ft 405 kts 300°
2026-04-29 10:57 38.40977 99.59557 32532 ft 406 kts 300°
2026-04-29 10:58 38.43690 99.53233 32523 ft 404 kts 300°
2026-04-29 10:58 38.46379 99.46957 32552 ft 403 kts 300°
2026-04-29 10:59 38.49074 99.40653 32550 ft 403 kts 300°
2026-04-29 10:59 38.51765 99.34343 32540 ft 403 kts 299°
2026-04-29 11:00 38.54421 99.28101 32539 ft 403 kts 299°
2026-04-29 11:00 38.57097 99.21803 32530 ft 403 kts 299°
2026-04-29 11:01 38.59737 99.15573 32566 ft 402 kts 300°
2026-04-29 11:01 38.62388 99.09308 32596 ft 399 kts 300°
2026-04-29 11:02 38.65051 99.03001 32591 ft 402 kts 299°
2026-04-29 11:02 38.67676 98.96770 32606 ft 397 kts 300°
2026-04-29 11:03 38.70301 98.90533 32596 ft 400 kts 300°
2026-04-29 11:03 38.72928 98.84283 32571 ft 397 kts 300°
2026-04-29 11:04 38.75549 98.78043 32568 ft 399 kts 300°
2026-04-29 11:04 38.78164 98.71796 32572 ft 398 kts 300°
2026-04-29 11:05 38.80774 98.65545 32571 ft 398 kts 299°
2026-04-29 11:05 38.83385 98.59271 32587 ft 398 kts 299°
2026-04-29 11:06 38.85980 98.53024 32597 ft 397 kts 299°
2026-04-29 11:06 38.88567 98.46783 32572 ft 397 kts 299°
2026-04-29 11:07 38.91142 98.40561 32570 ft 397 kts 299°
2026-04-29 11:07 38.93735 98.34282 32569 ft 395 kts 299°
2026-04-29 11:08 38.96319 98.28013 32524 ft 397 kts 298°
2026-04-29 11:08 38.98882 98.21781 32518 ft 396 kts 298°
2026-04-29 11:09 39.01446 98.15524 32502 ft 397 kts 298°
2026-04-29 11:09 39.04006 98.09267 32524 ft 396 kts 298°
2026-04-29 11:10 39.06574 98.02985 32516 ft 394 kts 298°
2026-04-29 11:10 39.09124 97.96733 32527 ft 396 kts 298°
2026-04-29 11:11 39.11669 97.90480 32526 ft 393 kts 298°
2026-04-29 11:11 39.14211 97.84222 32502 ft 391 kts 298°
2026-04-29 11:12 39.16737 97.77994 32480 ft 393 kts 298°
2026-04-29 11:12 39.19258 97.71766 32497 ft 393 kts 298°
2026-04-29 11:13 39.21778 97.65524 32480 ft 393 kts 298°
2026-04-29 11:13 39.24310 97.59250 32487 ft 392 kts 298°
2026-04-29 11:14 39.26827 97.53016 32476 ft 392 kts 298°
2026-04-29 11:14 39.29362 97.46729 32484 ft 392 kts 298°
2026-04-29 11:15 39.31899 97.40425 32467 ft 391 kts 298°
2026-04-29 11:15 39.34418 97.34154 32495 ft 390 kts 297°
2026-04-29 11:16 39.36923 97.27899 32466 ft 391 kts 297°
2026-04-29 11:16 39.39407 97.21684 32483 ft 389 kts 297°
2026-04-29 11:17 39.41899 97.15439 32465 ft 389 kts 297°
2026-04-29 11:17 39.44368 97.09238 32470 ft 390 kts 297°
2026-04-29 11:18 39.46847 97.02999 32463 ft 386 kts 297°
2026-04-29 11:18 39.49333 96.96788 32462 ft 389 kts 297°
2026-04-29 11:19 39.51820 96.90591 32432 ft 388 kts 297°
2026-04-29 11:19 39.54310 96.84380 32396 ft 387 kts 297°
2026-04-29 11:20 39.56786 96.78178 32409 ft 388 kts 298°
2026-04-29 11:20 39.59251 96.71985 32410 ft 387 kts 297°
2026-04-29 11:21 39.61731 96.65743 32397 ft 387 kts 297°
2026-04-29 11:21 39.64188 96.59538 32376 ft 388 kts 297°
2026-04-29 11:22 39.66655 96.53271 32349 ft 390 kts 297°
2026-04-29 11:22 39.69109 96.47026 32354 ft 386 kts 297°
2026-04-29 11:23 39.71546 96.40813 32334 ft 387 kts 297°
2026-04-29 11:23 39.73984 96.34592 32311 ft 386 kts 296°
2026-04-29 11:24 39.76419 96.28362 32321 ft 385 kts 296°
2026-04-29 11:24 39.78843 96.22142 32291 ft 384 kts 296°
2026-04-29 11:25 39.81272 96.15899 32270 ft 384 kts 296°
2026-04-29 11:25 39.83684 96.09686 32268 ft 385 kts 296°
2026-04-29 11:26 39.87286 96.00388 32242 ft 383 kts 296°
2026-04-29 11:26 39.89690 95.94166 32220 ft 383 kts 296°
2026-04-29 11:27 39.92090 95.87941 32222 ft 384 kts 296°
2026-04-29 11:27 39.94485 95.81718 32233 ft 385 kts 296°
2026-04-29 11:28 39.96884 95.75470 32187 ft 383 kts 296°
2026-04-29 11:28 39.99266 95.69250 32190 ft 383 kts 296°
2026-04-29 11:29 40.01653 95.63007 32172 ft 384 kts 296°
2026-04-29 11:29 40.04034 95.56764 32170 ft 382 kts 296°
2026-04-29 11:30 40.06398 95.50555 32159 ft 384 kts 296°
2026-04-29 11:30 40.08770 95.44315 32153 ft 382 kts 295°
2026-04-29 11:31 40.11126 95.38101 32145 ft 382 kts 295°
2026-04-29 11:31 40.13479 95.31880 32138 ft 384 kts 295°
2026-04-29 11:32 40.15847 95.25607 32128 ft 383 kts 295°
2026-04-29 11:32 40.18190 95.19386 32116 ft 383 kts 295°
2026-04-29 11:33 40.20551 95.13118 32104 ft 383 kts 295°
2026-04-29 11:33 40.22925 95.06874 32099 ft 383 kts 295°
2026-04-29 11:34 40.25293 95.00661 32093 ft 383 kts 295°
2026-04-29 11:34 40.27667 94.94413 32092 ft 384 kts 295°
2026-04-29 11:35 40.30083 94.88181 32090 ft 384 kts 297°
2026-04-29 11:35 40.33077 94.82355 32091 ft 385 kts 304°
2026-04-29 11:36 40.36413 94.76872 32089 ft 386 kts 306°
2026-04-29 11:36 40.39814 94.71377 32081 ft 387 kts 305°
2026-04-29 11:37 40.43176 94.65885 32077 ft 386 kts 305°
2026-04-29 11:37 40.46539 94.60337 32070 ft 385 kts 305°
2026-04-29 11:38 40.49881 94.54797 32064 ft 387 kts 305°
2026-04-29 11:38 40.53206 94.49270 32064 ft 384 kts 305°
2026-04-29 11:39 40.56515 94.43755 32073 ft 385 kts 305°
2026-04-29 11:39 40.59819 94.38238 32077 ft 386 kts 304°
2026-04-29 11:40 40.63141 94.32682 32082 ft 385 kts 304°
2026-04-29 11:40 40.66431 94.27171 32084 ft 386 kts 304°
2026-04-29 11:41 40.69741 94.21614 32085 ft 385 kts 304°
2026-04-29 11:41 40.73049 94.16054 32092 ft 385 kts 304°
2026-04-29 11:42 40.76332 94.10525 32097 ft 385 kts 304°
2026-04-29 11:42 40.79626 94.04967 32096 ft 385 kts 304°
2026-04-29 11:43 40.82918 93.99404 32091 ft 383 kts 304°
2026-04-29 11:43 40.86213 93.93823 32090 ft 385 kts 303°
2026-04-29 11:44 40.89495 93.88253 32086 ft 382 kts 303°
2026-04-29 11:44 40.92771 93.82748 32090 ft 385 kts 305°
2026-04-29 11:45 40.96244 93.77344 32096 ft 385 kts 306°
2026-04-29 11:45 40.99747 93.72005 32102 ft 386 kts 306°
2026-04-29 11:46 41.03220 93.66670 32113 ft 384 kts 306°
2026-04-29 11:46 41.06691 93.61290 32105 ft 385 kts 306°
2026-04-29 11:47 41.10160 93.55889 32105 ft 385 kts 306°
2026-04-29 11:47 41.13623 93.50487 32102 ft 383 kts 306°
2026-04-29 11:48 41.17133 93.45002 32081 ft 382 kts 306°
2026-04-29 11:48 41.20549 93.39655 32089 ft 384 kts 305°
2026-04-29 11:49 41.24001 93.34241 32082 ft 384 kts 304°
2026-04-29 11:49 41.27430 93.28862 32081 ft 381 kts 304°
2026-04-29 11:50 41.30854 93.23468 32077 ft 384 kts 304°
2026-04-29 11:50 41.34277 93.18077 32077 ft 382 kts 304°
2026-04-29 11:51 41.37704 93.12665 32082 ft 383 kts 304°
2026-04-29 11:51 41.41118 93.07262 32080 ft 381 kts 304°
2026-04-29 11:52 41.44526 93.01848 32077 ft 383 kts 304°
2026-04-29 11:52 41.47915 92.96475 32078 ft 379 kts 304°
2026-04-29 11:53 41.51316 92.91059 32067 ft 382 kts 304°
2026-04-29 11:53 41.54734 92.85608 32068 ft 382 kts 304°
2026-04-29 11:54 41.58153 92.80152 32068 ft 381 kts 304°
2026-04-29 11:54 41.61551 92.74716 32072 ft 381 kts 304°
2026-04-29 11:55 41.64948 92.69273 32073 ft 382 kts 304°
2026-04-29 11:55 41.68382 92.63751 32078 ft 381 kts 304°
2026-04-29 11:56 41.71777 92.58292 32087 ft 380 kts 304°
2026-04-29 11:56 41.75179 92.52811 32082 ft 380 kts 304°
2026-04-29 11:57 41.78576 92.47330 32074 ft 381 kts 304°
2026-04-29 11:57 41.81948 92.41878 32077 ft 382 kts 304°
2026-04-29 11:58 41.85318 92.36417 32068 ft 381 kts 304°
2026-04-29 11:58 41.88696 92.30928 32071 ft 379 kts 303°
2026-04-29 11:59 41.92058 92.25459 32066 ft 381 kts 303°
2026-04-29 11:59 41.95447 92.19933 32066 ft 380 kts 303°
2026-04-29 12:00 41.98797 92.14466 32065 ft 379 kts 303°
2026-04-29 12:00 42.02147 92.08982 32063 ft 380 kts 303°
2026-04-29 12:01 42.05503 92.03485 32062 ft 383 kts 303°
2026-04-29 12:01 42.08895 91.97916 32066 ft 384 kts 303°
2026-04-29 12:02 42.12286 91.92344 32067 ft 382 kts 303°
2026-04-29 12:02 42.15662 91.86791 32067 ft 383 kts 303°
2026-04-29 12:03 42.19033 91.81226 32065 ft 383 kts 303°
2026-04-29 12:03 42.22549 91.75789 32060 ft 387 kts 308°
2026-04-29 12:04 42.26891 91.71236 32059 ft 400 kts 319°
2026-04-29 12:04 42.31638 91.67328 32058 ft 405 kts 321°
2026-04-29 12:05 42.36485 91.63474 32045 ft 403 kts 321°
2026-04-29 12:05 42.41357 91.59552 32034 ft 404 kts 321°
2026-04-29 12:06 42.46209 91.55597 32029 ft 405 kts 320°
2026-04-29 12:06 42.51068 91.51600 32022 ft 407 kts 321°
2026-04-29 12:07 42.55902 91.47620 32022 ft 403 kts 321°
2026-04-29 12:07 42.60713 91.43639 32013 ft 405 kts 321°
2026-04-29 12:08 42.65559 91.39624 32000 ft 406 kts 321°
2026-04-29 12:08 42.70409 91.35599 31983 ft 409 kts 321°
2026-04-29 12:09 42.75275 91.31553 31975 ft 407 kts 321°
2026-04-29 12:09 42.80086 91.27546 31964 ft 408 kts 321°
2026-04-29 12:10 42.84939 91.23479 31967 ft 407 kts 320°
2026-04-29 12:10 42.89440 91.18954 31975 ft 401 kts 312°
2026-04-29 12:11 42.93508 91.13727 31969 ft 402 kts 310°
2026-04-29 12:11 42.97461 91.08321 31969 ft 400 kts 309°
2026-04-29 12:12 43.01395 91.02911 31974 ft 404 kts 309°
2026-04-29 12:12 43.05378 90.97454 31995 ft 401 kts 310°
2026-04-29 12:13 43.09323 90.92059 31996 ft 402 kts 310°
2026-04-29 12:13 43.13255 90.86676 32012 ft 401 kts 310°
2026-04-29 12:14 43.17215 90.81243 32030 ft 402 kts 310°
2026-04-29 12:14 43.21179 90.75798 32065 ft 404 kts 310°
2026-04-29 12:15 43.25186 90.70286 32074 ft 403 kts 310°
2026-04-29 12:15 43.29156 90.64816 32106 ft 402 kts 310°
2026-04-29 12:16 43.33105 90.59358 32110 ft 403 kts 311°
2026-04-29 12:16 43.37036 90.53919 32105 ft 399 kts 310°
2026-04-29 12:17 43.40893 90.48367 32110 ft 400 kts 309°
2026-04-29 12:17 43.44624 90.42758 32113 ft 398 kts 308°
2026-04-29 12:18 43.48365 90.37113 32105 ft 403 kts 309°
2026-04-29 12:18 43.52103 90.31493 32108 ft 397 kts 309°
2026-04-29 12:19 43.55864 90.25839 32119 ft 401 kts 309°
2026-04-29 12:19 43.59620 90.20192 32137 ft 400 kts 309°
2026-04-29 12:20 43.63400 90.14507 32150 ft 401 kts 309°
2026-04-29 12:20 43.67167 90.08829 32142 ft 399 kts 309°
2026-04-29 12:21 43.70908 90.03213 32168 ft 399 kts 309°
2026-04-29 12:21 43.74680 89.97576 32170 ft 400 kts 309°
2026-04-29 12:22 43.78449 89.91939 32167 ft 398 kts 309°
2026-04-29 12:22 43.82226 89.86276 32191 ft 402 kts 309°
2026-04-29 12:23 43.86018 89.80569 32188 ft 401 kts 310°
2026-04-29 12:23 43.89795 89.74875 32192 ft 401 kts 310°
2026-04-29 12:24 43.93570 89.69172 32207 ft 400 kts 310°
2026-04-29 12:24 43.97110 89.63268 32041 ft 401 kts 302°
2026-04-29 12:25 43.98428 89.59877 31790 ft 398 kts 292°
2026-04-29 12:25 43.99311 89.56245 31544 ft 399 kts 285°
2026-04-29 12:25 44.00386 89.48705 31048 ft 402 kts 280°
2026-04-29 12:26 44.00827 89.44823 30798 ft 404 kts 280°
2026-04-29 12:26 44.01251 89.40961 30543 ft 408 kts 280°
2026-04-29 12:26 44.01675 89.37081 30291 ft 407 kts 279°
2026-04-29 12:26 44.02101 89.33212 30036 ft 407 kts 279°
2026-04-29 12:27 44.02537 89.29281 29783 ft 409 kts 279°
2026-04-29 12:27 44.02970 89.25420 29538 ft 411 kts 279°
2026-04-29 12:27 44.03408 89.21510 29291 ft 411 kts 279°
2026-04-29 12:27 44.03851 89.17566 29043 ft 413 kts 279°
2026-04-29 12:28 44.04293 89.13633 28797 ft 414 kts 280°
2026-04-29 12:28 44.04736 89.09680 28549 ft 415 kts 280°
2026-04-29 12:28 44.05180 89.05724 28302 ft 415 kts 280°
2026-04-29 12:28 44.05620 89.01785 28055 ft 416 kts 280°
2026-04-29 12:29 44.06065 88.97785 27805 ft 416 kts 280°
2026-04-29 12:29 44.06501 88.93855 27559 ft 415 kts 281°
2026-04-29 12:29 44.06943 88.89857 27308 ft 418 kts 281°
2026-04-29 12:29 44.07379 88.85908 27062 ft 418 kts 281°
2026-04-29 12:30 44.07820 88.81908 26811 ft 420 kts 281°
2026-04-29 12:30 44.08266 88.77882 26563 ft 420 kts 281°
2026-04-29 12:30 44.08711 88.73874 26314 ft 421 kts 281°
2026-04-29 12:30 44.09149 88.69902 26066 ft 418 kts 281°
2026-04-29 12:31 44.09580 88.65964 25813 ft 406 kts 282°
2026-04-29 12:31 44.09998 88.62122 25562 ft 394 kts 282°
2026-04-29 12:31 44.10398 88.58445 25318 ft 383 kts 282°
2026-04-29 12:31 44.10790 88.54851 25073 ft 373 kts 282°
2026-04-29 12:32 44.11177 88.51305 24825 ft 365 kts 283°
2026-04-29 12:32 44.11553 88.47866 24578 ft 362 kts 283°
2026-04-29 12:32 44.11937 88.44379 24333 ft 363 kts 283°
2026-04-29 12:32 44.12311 88.40955 24084 ft 362 kts 283°
2026-04-29 12:33 44.12687 88.37489 23833 ft 359 kts 283°
2026-04-29 12:33 44.13055 88.34075 23531 ft 359 kts 283°
2026-04-29 12:33 44.13424 88.30660 23061 ft 360 kts 283°
2026-04-29 12:33 44.13795 88.27214 22504 ft 358 kts 283°
2026-04-29 12:34 44.14161 88.23807 21947 ft 357 kts 283°
2026-04-29 12:34 44.14521 88.20435 21386 ft 355 kts 283°
2026-04-29 12:34 44.14884 88.17024 20822 ft 354 kts 283°
2026-04-29 12:34 44.15242 88.13644 20248 ft 352 kts 283°
2026-04-29 12:35 44.15590 88.10331 19704 ft 350 kts 283°
2026-04-29 12:35 44.15824 88.08110 19329 ft 349 kts 283°
2026-04-29 12:35 44.16381 88.03702 18566 ft 345 kts 286°
2026-04-29 12:35 44.16816 88.00433 18003 ft 345 kts 282°
2026-04-29 12:36 44.16767 87.97085 17462 ft 353 kts 264°
2026-04-29 12:36 44.15902 87.93846 16939 ft 360 kts 250°
2026-04-29 12:36 44.14726 87.90816 16387 ft 360 kts 248°
2026-04-29 12:36 44.13486 87.87798 15836 ft 358 kts 247°
2026-04-29 12:37 44.12266 87.84808 15289 ft 356 kts 248°
2026-04-29 12:37 44.11064 87.81789 14738 ft 353 kts 248°
2026-04-29 12:37 44.09911 87.78828 14205 ft 351 kts 249°
2026-04-29 12:37 44.08766 87.75839 13668 ft 348 kts 249°
2026-04-29 12:38 44.07682 87.72903 13145 ft 343 kts 252°
2026-04-29 12:38 44.06840 87.69841 12711 ft 333 kts 258°
2026-04-29 12:38 44.06183 87.66825 12481 ft 321 kts 260°
2026-04-29 12:38 44.05601 87.63916 12372 ft 307 kts 260°
2026-04-29 12:39 44.05042 87.61106 12187 ft 296 kts 260°
2026-04-29 12:39 44.04488 87.58373 11859 ft 292 kts 260°
2026-04-29 12:39 44.03936 87.55697 11470 ft 291 kts 259°
2026-04-29 12:39 44.03366 87.52999 11254 ft 283 kts 259°
2026-04-29 12:40 44.02822 87.50451 11046 ft 274 kts 259°
2026-04-29 12:40 44.02280 87.47920 10747 ft 271 kts 259°
2026-04-29 12:40 44.01752 87.45444 10414 ft 269 kts 259°
2026-04-29 12:40 44.01223 87.42961 10083 ft 267 kts 258°
2026-04-29 12:41 44.00700 87.40517 9766 ft 266 kts 258°
2026-04-29 12:41 44.00174 87.38063 9597 ft 257 kts 258°
2026-04-29 12:41 43.99678 87.35760 9499 ft 247 kts 258°
2026-04-29 12:41 43.99194 87.33501 9230 ft 245 kts 257°
2026-04-29 12:42 43.98711 87.31242 8937 ft 243 kts 258°
2026-04-29 12:42 43.98233 87.28996 8665 ft 242 kts 257°
2026-04-29 12:42 43.97751 87.26753 8386 ft 242 kts 258°
2026-04-29 12:42 43.97268 87.24496 8113 ft 241 kts 257°
2026-04-29 12:43 43.96793 87.22273 7849 ft 243 kts 257°
2026-04-29 12:43 43.96313 87.20036 7561 ft 243 kts 257°
2026-04-29 12:43 43.95748 87.17810 7276 ft 246 kts 248°
2026-04-29 12:43 43.94698 87.15964 7108 ft 247 kts 217°
2026-04-29 12:44 43.93086 87.15141 7008 ft 250 kts 187°
2026-04-29 12:44 43.91356 87.15341 6675 ft 254 kts 166°
2026-04-29 12:44 43.89681 87.16056 6507 ft 247 kts 158°
2026-04-29 12:44 43.88209 87.17215 6284 ft 245 kts 135°
2026-04-29 12:45 43.87312 87.19128 6036 ft 234 kts 102°
2026-04-29 12:45 43.87214 87.21328 5679 ft 228 kts 76°
2026-04-29 12:45 43.87593 87.23420 5364 ft 225 kts 69°
2026-04-29 12:45 43.88064 87.25471 5057 ft 223 kts 68°
2026-04-29 12:46 43.88518 87.27523 4747 ft 216 kts 69°
2026-04-29 12:46 43.88919 87.29446 4486 ft 201 kts 69°
2026-04-29 12:46 43.89309 87.31257 4197 ft 188 kts 68°
2026-04-29 12:46 43.89668 87.32907 4007 ft 169 kts 68°
2026-04-29 12:47 43.89996 87.34428 3731 ft 161 kts 67°
2026-04-29 12:47 43.90314 87.35896 3535 ft 157 kts 67°
2026-04-29 12:47 43.90624 87.37354 3327 ft 157 kts 68°
2026-04-29 12:47 43.90936 87.38804 3123 ft 156 kts 68°
2026-04-29 12:48 43.91246 87.40241 2914 ft 155 kts 68°
2026-04-29 12:48 43.91537 87.41680 2705 ft 155 kts 69°
2026-04-29 12:48 43.91846 87.43100 2522 ft 153 kts 66°
2026-04-29 12:48 43.92162 87.44506 2326 ft 154 kts 68°
2026-04-29 12:49 43.92474 87.45950 2151 ft 153 kts 68°
2026-04-29 12:49 43.92732 87.47160 2137 ft 95 kts 70°
2026-04-29 12:49 43.92853 87.47739 2137 ft 34 kts 77°
2026-04-29 12:49 43.92857 87.47939 2137 ft 17 kts 97°
2026-04-29 12:50 43.92840 87.48076 2137 ft 8 kts 101°
2026-04-29 12:50 43.92829 87.48156 2137 ft 9 kts 99°
2026-04-29 12:50 43.92815 87.48270 2137 ft 13 kts 98°
2026-04-29 12:50 43.92815 87.48410 2137 ft 14 kts 73°
2026-04-29 12:51 43.92805 87.48494 2137 ft 9 kts 149°
2026-04-29 12:51 43.92744 87.48523 2137 ft 10 kts 162°
2026-04-29 12:51 43.92665 87.48556 2137 ft 13 kts 162°
2026-04-29 12:51 43.92574 87.48595 2137 ft 13 kts 162°
2026-04-29 12:52 43.92509 87.48592 2137 ft 9 kts 226°
2026-04-29 12:52 43.92485 87.48508 2137 ft 10 kts 253°
2026-04-29 12:52 43.92462 87.48399 2137 ft 14 kts 253°
2026-04-29 12:52 43.92430 87.48245 2137 ft 19 kts 253°
2026-04-29 12:53 43.92392 87.48070 2138 ft 18 kts 253°
2026-04-29 12:53 43.92352 87.47881 2138 ft 22 kts 253°
2026-04-29 12:53 43.92307 87.47666 2138 ft 23 kts 253°
2026-04-29 12:53 43.92261 87.47453 2138 ft 22 kts 253°
2026-04-29 12:54 43.92218 87.47249 2138 ft 21 kts 254°
2026-04-29 12:54 43.92176 87.47053 2138 ft 20 kts 253°
2026-04-29 12:54 43.92136 87.46864 2138 ft 19 kts 254°
2026-04-29 12:54 43.92098 87.46684 2138 ft 19 kts 253°
2026-04-29 12:55 43.92061 87.46512 2138 ft 18 kts 253°
2026-04-29 12:55 43.92031 87.46422 2138 ft 8 kts 195°
2026-04-29 12:55 43.91974 87.46435 2138 ft 8 kts 161°
2026-04-29 12:55 43.91911 87.46462 2138 ft 10 kts 162°
2026-04-29 12:56 43.91833 87.46496 2138 ft 12 kts 162°
2026-04-29 12:56 43.91742 87.46535 2139 ft 14 kts 162°
2026-04-29 12:56 43.91635 87.46581 2139 ft 16 kts 162°
2026-04-29 12:56 43.91524 87.46629 2139 ft 16 kts 162°
2026-04-29 12:57 43.91416 87.46675 2139 ft 15 kts 162°
2026-04-29 12:57 43.91313 87.46719 2139 ft 15 kts 162°
2026-04-29 12:57 43.91256 87.46769 2139 ft 8 kts 106°
2026-04-29 12:57 43.91265 87.46846 2139 ft 7 kts 73°
2026-04-29 12:58 43.91283 87.46929 2139 ft 10 kts 73°
2026-04-29 12:58 43.91319 87.47102 2139 ft 6 kts 73°
2026-04-29 12:58 43.91344 87.47139 2139 ft 5 kts 12°
2026-04-29 12:59 43.91380 87.47131 2139 ft 5 kts 342°
2026-04-29 12:59 43.91408 87.47119 2139 ft 2 kts 343°
2026-04-29 12:59 43.91416 87.47116 2139 ft 0 kts 343°